Weather History for Krakow, Poland

Change the Weather History Date:

Monday, September 9, 2013

  Actual Average Record
Temperature  
Mean Temperature 55 °F -  
Max Temperature 62 °F 63 °F - ()
Min Temperature 48 °F 45 °F - ()
Degree Days  
Heating Degree Days 10    
Growing Degree Days 5 (Base 50)    
Moisture  
Dew Point 52 °F    
Average Humidity 88    
Maximum Humidity 100    
Minimum Humidity 69    
Precipitation  
Precipitation 0.12 in 0.07 in - ()
Sea Level Pressure  
Sea Level Pressure 30.05 in    
Wind  
Wind Speed 4 mph ()    
Max Wind Speed 10 mph    
Max Gust Speed -    
Visibility 4.8 miles    
Events Rain    
T = Trace of Precipitation, MM = Missing Value Source: Averaged Metar Reports

Daily Weather History Graph

Daily Weather History Graph

Search for Another Location

Airport:

Trip Planner

Search our weather history database for the weather conditions in past years. The results will help you decide how hot, cold, wet, or windy it might be!

Date:

Astronomy

Sep. 09, 2013 Rise Set
Actual Time 6:07 AM CEST 7:07 PM CEST
Civil Twilight 5:34 AM CEST 7:40 PM CEST
Nautical Twilight 4:54 AM CEST 8:20 PM CEST
Astronomical Twilight 4:12 AM CEST 9:02 PM CEST
Moon 10:38 AM CEST (9/9) 8:40 PM CEST (9/9)
Length of Visible Light 14h 05m
Length of Day
12h 59m
Waxing Crescent, 16% of the Moon is Illuminated
Sep 9
Waxing Crescent
Sep 12
First Quarter
Sep 19
Full
Sep 27
Last Quarter
Oct 5
New

Hourly Weather History & Observations

Time (CEST) Temp. Dew Point Humidity Pressure Visibility Wind Dir Wind Speed Gust Speed Precip Events Conditions
12:00 AM 55.4 °F 48.2 °F 77% 30.12 in - NE 8.1 mph - N/A   Clear
12:30 AM 53.6 °F 48.2 °F 82% 30.12 in - NE 6.9 mph - N/A   Clear
1:00 AM 53.6 °F 48.2 °F 82% 30.12 in - NE 4.6 mph - N/A   Clear
1:30 AM 53.6 °F 48.2 °F 82% 30.12 in - Calm Calm - N/A   Clear
2:00 AM 52 °F 48 °F 82% 30.14 in 31 mi North 2.2 mph - -   Clear
2:00 AM 51.8 °F 48.2 °F 88% 30.12 in - Calm Calm - N/A   Clear
2:30 AM 50.0 °F 46.4 °F 87% 30.12 in - Calm Calm - N/A   Clear
3:00 AM 50.0 °F 48.2 °F 94% 30.09 in - NE 3.5 mph - N/A   Clear
3:30 AM 50.0 °F 48.2 °F 94% 30.09 in - NE 3.5 mph - N/A   Clear
4:00 AM 48.2 °F 46.4 °F 93% 30.09 in - NE 3.5 mph - N/A   Clear
4:30 AM 48.2 °F 46.4 °F 93% 30.06 in - ENE 4.6 mph - N/A   Clear
5:00 AM 48 °F 46 °F 90% 30.09 in 25 mi NE 6.7 mph - -   Clear
5:00 AM 48.2 °F 46.4 °F 93% 30.06 in - ENE 5.8 mph - N/A   Clear
5:30 AM 48.2 °F 46.4 °F 93% 30.04 in - NE 5.8 mph - N/A   Clear
6:00 AM 48.2 °F 46.4 °F 93% 30.04 in - NE 5.8 mph - N/A   Clear
6:30 AM 50.0 °F 48.2 °F 94% 30.04 in - ENE 3.5 mph - N/A   Clear
7:00 AM 50.0 °F 48.2 °F 94% 30.04 in - Variable 2.3 mph - N/A   Clear
7:30 AM 53.6 °F 50.0 °F 88% 30.01 in - ENE 5.8 mph - N/A   Clear
8:00 AM 53.6 °F 50.0 °F 88% 30.01 in - ENE 6.9 mph - N/A   Clear
8:30 AM 55.4 °F 50.0 °F 82% 30.01 in - ENE 5.8 mph - N/A   Clear
9:00 AM 55.4 °F 50.0 °F 82% 30.01 in - ENE 6.9 mph - N/A   Clear
9:30 AM 55.4 °F 50.0 °F 82% 30.01 in - ENE 5.8 mph - N/A   Clear
10:00 AM 57.2 °F 50.0 °F 77% 30.01 in - NE 5.8 mph - N/A   Clear
10:30 AM 57.2 °F 51.8 °F 82% 30.01 in - ENE 4.6 mph - N/A   Clear
11:00 AM 59 °F 51 °F 69% 30.01 in 12 mi NE 6.7 mph - -   Mostly Cloudy
11:00 AM 59.0 °F 51.8 °F 77% 30.01 in - ENE 4.6 mph - N/A   Clear
11:30 AM 59.0 °F 51.8 °F 77% 30.01 in 6.2 mi NE 3.5 mph - N/A   Mostly Cloudy
12:00 PM 60.8 °F 51.8 °F 72% 30.01 in 6.2 mi Variable 2.3 mph - N/A   Mostly Cloudy
12:30 PM 60.8 °F 53.6 °F 77% 29.98 in 6.2 mi ENE 3.5 mph - N/A   Scattered Clouds
1:00 PM 60.8 °F 55.4 °F 82% 29.98 in 6.2 mi Variable 2.3 mph - N/A   Scattered Clouds
1:30 PM 60.8 °F 55.4 °F 82% 29.98 in 6.2 mi Variable 2.3 mph - N/A   Mostly Cloudy
2:00 PM 62 °F 55 °F 70% 30.00 in 6 mi NNE 2.2 mph - - Rain Light Rain
2:00 PM 62.6 °F 55.4 °F 77% 30.01 in 6.2 mi Calm Calm - N/A   Mostly Cloudy
2:30 PM 62.6 °F 55.4 °F 77% 30.01 in 6.2 mi WSW 10.4 mph - N/A   Mostly Cloudy
3:00 PM 62.6 °F 55.4 °F 77% 30.01 in 6.2 mi SW 4.6 mph - N/A Rain Light Rain
3:30 PM 60.8 °F 55.4 °F 82% 30.01 in 6.2 mi WSW 8.1 mph - N/A Rain Light Rain
4:00 PM 59.0 °F 55.4 °F 88% 30.01 in 6.2 mi WSW 5.8 mph - N/A Rain Light Rain
4:30 PM 59.0 °F 57.2 °F 94% 30.01 in 6.2 mi WSW 8.1 mph - N/A Rain Light Rain
5:00 PM 58 °F 56 °F 93% 30.03 in 5 mi SW 6.7 mph - - Rain Light Rain
5:00 PM 59.0 °F 57.2 °F 94% 30.04 in 5.0 mi SW 5.8 mph - N/A Rain Light Rain
5:30 PM 57.2 °F 57.2 °F 100% 30.04 in 4.3 mi SW 3.5 mph - N/A Rain Light Rain
6:00 PM 57.2 °F 57.2 °F 100% 30.04 in 4.3 mi SSW 3.5 mph - N/A Rain Light Rain
6:30 PM 57.2 °F 57.2 °F 100% 30.04 in 3.1 mi SSW 3.5 mph - N/A Rain Light Rain
7:00 PM 57.2 °F 57.2 °F 100% 30.04 in 1.9 mi SW 5.8 mph - N/A Rain Light Rain
7:30 PM 57.2 °F 57.2 °F 100% 30.04 in 1.9 mi SW 6.9 mph - N/A   Light Drizzle
8:00 PM 58 °F 57 °F 94% 30.06 in 5 mi SW 6.7 mph - - Rain Light Drizzle
8:00 PM 57.2 °F 57.2 °F 100% 30.04 in 5.0 mi SW 6.9 mph - N/A   Mostly Cloudy
8:30 PM 57.2 °F 57.2 °F 100% 30.06 in 5.0 mi SW 5.8 mph - N/A   Mostly Cloudy
9:00 PM 57.2 °F 55.4 °F 94% 30.06 in 5.0 mi SW 3.5 mph - N/A   Mostly Cloudy
9:30 PM 57.2 °F 57.2 °F 100% 30.06 in 5.0 mi Variable 2.3 mph - N/A   Mostly Cloudy
10:00 PM 57.2 °F 55.4 °F 94% 30.06 in 2.5 mi SSW 3.5 mph - N/A   Mostly Cloudy
10:30 PM 57.2 °F 55.4 °F 94% 30.06 in 1.0 mi Variable 2.3 mph - N/A   Mostly Cloudy
11:00 PM 56 °F 55 °F 97% 30.09 in 1 mi West 2.2 mph - -   Mist
11:00 PM 55.4 °F 55.4 °F 100% 30.06 in 0.6 mi Calm Calm - N/A   Mist
11:30 PM 55.4 °F 55.4 °F 100% 30.06 in 0.9 mi Calm Calm - N/A   Scattered Clouds